Location: ?p Thanh B�nh
(16.5833°N, 107.5333°E)
Time: 10:15:31
(UTC+00:00)

ADEOS Rocket - Pass Details

Date: 29 October 2020
Orbit: 859 x 1306 km, 98.7° (Epoch: 23 November)

Event Time Altitude Azimuth Distance (km) Brightness Sun altitude
Rises 21:31:03 0° 178° (S) 3,538 6.1 -18.6°
Reaches altitude 10° 21:33:33 10° 182° (S) 2,557 5.3 -18.0°
Maximum altitude 21:39:00 52° 258° (WSW) 1,060 2.8 -16.7°
Drops below altitude 10° 21:44:18 10° 335° (NNW) 2,491 4.8 -15.5°
Sets 21:46:44 0° 340° (NNW) 3,439 5.6 -14.9°
